St. Johns, AZ

12:09 AM MST on July 25, 2017 (GMT -0700)
Saint Johns Industrial

Weather History for KSJN - October, 2012

Change the Weather History Date:

Wednesday, October 17, 2012

  Actual Average (KLSB) Record (KLSB)
Temperature  
Mean Temperature 55 °F -  
Max Temperature 73 °F 77 °F 80 °F (2014)
Min Temperature 37 °F 42 °F 32 °F (2013)
Degree Days  
Heating Degree Days 10    
Growing Degree Days 5 (Base 50)    
Moisture  
Dew Point 26 °F    
Average Humidity 29    
Maximum Humidity 46    
Minimum Humidity 4    
Precipitation  
Precipitation 0.00 in - - ()
Sea Level Pressure  
Sea Level Pressure 29.88 in    
Wind  
Wind Speed 3 mph (West)    
Max Wind Speed 14 mph    
Max Gust Speed 26 mph    
Visibility 10 miles    
Events      
Averages and records for this station are not official NWS values.
T = Trace of Precipitation, MM = Missing Value Source: NWS Daily Summary

Daily Weather History Graph

Daily Weather History Graph

Search for Another Location

Airport or City:

Trip Planner

Search our weather history database for the weather conditions in past years. The results will help you decide how hot, cold, wet, or windy it might be!

Date:

Astronomy

Oct. 17, 2012 Rise Set
Actual Time 6:25 AM MST 5:39 PM MST
Civil Twilight 5:59 AM MST 6:05 PM MST
Nautical Twilight 5:30 AM MST 6:34 PM MST
Astronomical Twilight 5:01 AM MST 7:03 PM MST
Moon 8:55 AM MST (10/17) 7:26 PM MST (10/17)
Length of Visible Light 12h 05m
Length of Day
11h 14m
Waxing Crescent, 8% of the Moon is Illuminated
Oct 17
Waxing Crescent
Oct 21
First Quarter
Oct 29
Full
Nov 6
Last Quarter
Nov 13
New

Hourly Weather History & Observations

Time (MST) Temp. Dew Point Humidity Pressure Visibility Wind Dir Wind Speed Gust Speed Precip Events Conditions
12:54 AM 54.0 °F 27.0 °F 35% 29.80 in 10.0 mi Calm Calm - N/A   Clear
1:54 AM 53.1 °F 27.0 °F 37% 29.79 in 10.0 mi Calm Calm - N/A   Clear
2:54 AM 51.1 °F 27.0 °F 39% 29.80 in 10.0 mi West 3.5 mph - N/A   Clear
3:54 AM 50.0 °F 28.0 °F 43% 29.81 in 10.0 mi Calm Calm - N/A   Clear
4:54 AM 53.1 °F 28.0 °F 38% 29.82 in 10.0 mi Calm Calm - N/A   Clear
5:54 AM 52.0 °F 28.0 °F 40% 29.87 in 10.0 mi Calm Calm - N/A   Clear
6:54 AM 50.0 °F 28.0 °F 43% 29.88 in 10.0 mi Calm Calm - N/A   Clear
7:54 AM 57.9 °F 28.9 °F 33% 29.88 in 10.0 mi Calm Calm - N/A   Clear
8:54 AM 62.1 °F 28.9 °F 29% 29.90 in 10.0 mi Calm Calm - N/A   Clear
9:54 AM 66.0 °F 30.0 °F 26% 29.88 in 10.0 mi WNW 3.5 mph - N/A   Clear
10:54 AM 69.1 °F 32.0 °F 25% 29.88 in 10.0 mi WNW 9.2 mph - N/A   Clear
11:54 AM 72.0 °F 33.1 °F 24% 29.85 in 10.0 mi WNW 10.4 mph - N/A   Clear
12:54 PM 73.0 °F 34.0 °F 24% 29.83 in 10.0 mi West 9.2 mph 26.5 mph N/A   Clear
1:54 PM 75.0 °F 30.0 °F 19% 29.82 in 10.0 mi NW 10.4 mph 24.2 mph N/A   Clear
2:54 PM 75.0 °F 28.9 °F 18% 29.82 in 10.0 mi NW 11.5 mph 19.6 mph N/A   Clear
3:54 PM 75.0 °F 24.1 °F 15% 29.82 in 10.0 mi West 13.8 mph - N/A   Clear
4:54 PM 73.0 °F 23.0 °F 15% 29.83 in 10.0 mi West 13.8 mph - N/A   Clear
5:54 PM 63.0 °F 24.1 °F 23% 29.88 in 10.0 mi West 8.1 mph - N/A   Clear
6:54 PM 57.9 °F 24.1 °F 27% 29.93 in 10.0 mi WSW 4.6 mph - N/A   Clear
7:54 PM 57.9 °F 24.1 °F 27% 29.91 in 10.0 mi Calm Calm - N/A   Clear
8:54 PM 55.0 °F 23.0 °F 29% 29.93 in 10.0 mi SSW 4.6 mph - N/A   Clear
9:54 PM 55.0 °F 21.9 °F 28% 29.92 in 10.0 mi SW 4.6 mph - N/A   Clear
10:54 PM 52.0 °F 21.9 °F 31% 29.94 in 10.0 mi Calm Calm - N/A   Clear
11:54 PM 48.9 °F 21.9 °F 35% 29.96 in 10.0 mi Calm Calm - N/A   Clear